Wind_Speed
31 31 31 31 31 31 31 32 32 32 32 31 31 30 30 29 29 28 27 27 27 27 26 26 26 26 26 25 25 25 25 25 25 25 25 25 26 26 26 26 26 26 26
32 33 33 33 34 34 34 34 34 34 34 33 33 32 32 31 31 30 30 29 29 28 28 28 27 27 27 27 27 27 27 27 27 27 27 27 27 28 28 28 28 28 27
34 34 35 36 36 36 36 36 36 35 35 35 35 34 34 33 33 33 32 32 31 31 30 30 29 29 29 28 28 28 29 29 29 30 30 30 30 29 30 30 30 30 29
35 35 36 37 38 38 38 38 38 38 37 37 37 36 36 36 35 35 35 34 33 33 32 32 32 31 31 31 30 30 31 31 31 32 32 32 32 32 32 32 31 31 31
36 36 37 38 39 39 39 40 39 39 39 39 39 38 38 38 37 36 36 36 35 34 34 33 33 33 33 33 33 32 33 33 34 34 34 34 34 34 34 34 34 33 33
37 38 38 39 40 40 40 40 40 40 40 40 40 39 39 38 38 37 37 36 36 35 35 35 35 35 35 35 34 34 35 35 36 36 36 36 36 36 36 36 36 36 36
37 38 39 40 40 41 41 41 41 40 40 40 41 41 40 39 39 38 38 38 37 37 36 36 37 37 37 36 36 37 37 37 38 38 38 38 38 38 38 38 38 38 38
38 39 39 40 41 42 42 42 42 41 41 41 41 41 41 40 40 40 39 39 39 39 39 39 39 39 39 38 39 39 39 39 40 41 41 41 41 41 41 41 41 40 40
38 39 39 39 40 41 42 42 42 42 42 42 42 43 43 43 41 40 41 41 41 41 41 41 41 41 41 41 41 42 42 42 42 42 43 43 43 43 43 44 44 44 44
38 39 39 40 40 40 41 41 41 42 43 43 44 44 44 44 43 42 41 42 42 43 42 43 43 43 43 44 44 44 44 44 45 45 45 45 46 46 46 46 46 46 46
39 39 39 40 41 41 41 41 42 43 44 45 45 45 44 45 44 44 44 43 43 44 44 44 44 45 46 46 47 47 47 47 48 48 48 48 48 49 49 49 48 48 48
39 39 40 40 41 41 42 43 43 44 44 45 46 46 46 45 45 45 45 45 45 45 45 46 46 47 47 48 49 49 49 50 50 50 51 51 51 51 51 51 50 50 50
38 39 39 40 41 42 43 43 42 43 44 45 46 46 46 47 47 47 46 47 47 47 47 47 48 49 49 50 51 51 52 52 52 52 53 53 53 53 53 53 52 52 52
38 39 39 39 39 41 42 42 42 42 42 43 45 46 46 47 47 47 47 47 48 48 48 48 49 50 51 52 52 53 53 53 53 54 54 55 55 55 55 55 56 55 55
38 38 38 38 38 39 40 41 41 41 42 43 43 45 46 47 47 48 48 48 49 49 49 49 50 51 52 53 54 55 55 55 56 56 56 56 57 57 57 58 58 58 57
37 37 37 36 37 38 39 39 39 40 41 42 43 44 45 46 47 48 48 49 50 50 50 49 50 50 52 54 54 55 56 56 57 58 58 58 59 60 59 58 58 58 58
35 35 35 36 37 38 38 38 38 40 41 42 44 45 45 45 46 47 49 50 51 51 51 51 50 51 53 53 54 55 56 57 58 58 59 59 59 59 58 58 58 58 58
34 34 35 35 36 36 37 37 38 39 40 41 42 44 45 45 45 46 47 48 50 51 52 52 51 51 52 53 54 55 55 56 57 58 58 58 58 58 57 57 57 57 58
33 33 34 35 35 36 36 36 37 38 39 40 42 44 45 46 46 46 47 48 49 51 52 52 51 50 51 52 53 53 54 55 56 56 56 55 56 56 56 56 56 56 56
34 34 34 34 35 35 35 36 37 38 39 40 40 41 43 44 45 46 47 48 48 49 50 50 51 51 51 51 52 52 53 53 53 53 53 53 53 53 53 53 53 53 53
34 35 35 35 35 35 36 36 37 38 38 38 39 40 41 43 45 45 45 45 46 48 49 50 51 52 51 51 51 51 51 50 49 49 49 49 49 49 49 49 49 50 50
35 35 35 36 35 36 37 38 38 38 39 39 40 40 41 42 43 44 45 45 46 48 50 50 51 50 50 50 50 50 49 49 47 46 46 46 46 46 46 47 47 48 48
35 36 36 36 36 36 37 38 39 39 39 39 40 40 41 42 43 44 44 45 47 48 50 50 50 49 49 49 48 47 46 46 45 44 45 44 45 46 46 46 47 47 47
35 36 37 37 37 37 38 38 38 38 39 39 39 40 40 42 43 44 45 45 45 46 46 47 47 46 47 46 44 43 43 43 43 43 44 45 45 46 46 45 46 46 46
35 36 37 37 38 38 39 38 38 38 38 39 40 40 41 42 43 44 45 44 43 43 43 44 44 44 44 42 42 42 42 43 43 43 44 45 45 45 44 45 45 46 45
36 36 35 36 37 38 38 38 38 37 38 39 40 40 41 42 43 43 43 42 41 41 41 41 42 42 41 41 41 42 42 43 43 42 43 44 44 44 43 42 44 44 44
Wind_Direction
254 254 254 254 254 253 253 254 256 256 257 258 258 259 261 263 264 265 266 267 269 270 272 272 274 276 276 277 278 278 278 278 279 280 282 283 285 286 287 288 289 290 291
255 256 255 255 254 254 254 255 256 257 257 258 258 259 260 262 264 264 265 267 268 269 271 271 273 275 275 276 276 277 278 278 279 280 281 282 284 286 287 288 289 289 288
255 256 256 255 255 255 255 255 256 257 258 258 258 259 260 262 264 264 264 266 267 268 270 272 272 274 274 275 276 276 276 277 278 279 281 282 284 285 287 287 287 287 287
257 257 256 256 256 256 256 256 257 258 259 259 259 259 260 262 263 264 264 265 266 268 270 271 272 273 274 274 274 275 276 277 278 279 281 282 283 284 286 287 286 286 285
257 258 258 256 256 256 256 256 257 257 258 258 259 260 260 262 263 263 264 264 266 267 269 270 271 272 273 273 274 274 275 277 278 278 280 281 282 283 284 285 285 284 284
259 260 259 257 256 256 256 256 256 256 256 257 258 259 260 261 262 262 264 265 266 267 269 270 270 271 273 273 274 274 275 276 278 279 280 281 282 282 282 284 284 283 283
261 260 259 259 257 256 256 256 256 256 256 256 257 258 259 260 261 262 264 265 266 267 268 270 270 272 273 273 274 276 276 277 278 279 280 281 281 281 282 283 283 282 283
261 260 259 259 258 256 256 256 256 256 256 256 257 257 258 259 261 262 264 265 267 267 269 270 271 271 272 273 275 276 276 277 278 279 280 280 281 281 281 281 282 282 282
262 260 259 259 258 257 256 256 256 255 255 255 256 256 257 258 260 261 264 265 266 267 269 270 270 271 272 273 275 276 277 277 278 279 279 280 281 281 281 281 281 281 281
262 261 260 259 258 257 256 255 255 255 255 254 256 257 258 259 260 261 262 264 265 267 268 270 270 270 272 273 274 275 276 277 278 278 279 280 280 281 281 281 281 281 282
262 262 260 259 259 257 257 257 256 256 255 255 256 256 258 258 259 260 261 262 265 267 268 269 270 272 273 274 275 276 276 277 278 278 279 279 280 280 281 280 280 281 281
263 262 261 261 260 258 258 258 258 257 257 256 256 257 257 258 259 260 260 262 264 266 269 270 270 272 274 275 276 276 277 278 278 278 279 279 279 280 280 280 280 280 280
262 263 263 262 261 260 259 258 258 259 258 257 256 256 257 258 258 260 262 263 265 267 269 270 271 272 274 275 276 277 278 279 279 279 279 280 279 280 280 280 280 280 279
261 262 263 262 261 261 260 259 258 258 258 257 256 256 256 258 259 261 263 264 266 266 268 270 271 273 274 276 277 278 279 280 280 280 280 280 280 280 281 281 280 280 279
262 262 263 263 263 262 261 260 259 257 257 257 257 258 258 258 259 260 263 265 267 269 269 270 272 273 275 276 278 279 279 280 280 280 281 281 281 281 282 282 281 280 279
261 262 262 263 264 263 262 260 259 258 258 258 258 258 260 260 261 261 263 265 267 269 271 272 273 275 276 278 280 280 280 280 280 280 280 281 282 282 282 281 280 280 279
260 261 262 263 264 263 262 261 261 260 260 259 259 260 262 263 263 264 265 268 270 270 271 272 273 275 277 279 280 281 281 281 281 281 282 282 282 282 281 280 280 279 278
263 262 263 264 265 264 263 262 261 261 262 262 263 263 263 264 264 267 268 270 271 272 273 274 275 276 278 279 281 283 283 282 282 282 283 283 283 283 282 281 280 279 278
262 264 263 263 264 264 263 263 263 262 262 264 265 265 266 267 267 268 269 271 273 274 275 276 277 277 279 280 282 283 283 283 283 283 284 284 284 283 282 282 281 280 280
262 264 264 263 264 264 265 264 264 264 265 268 268 269 268 269 270 270 271 272 273 275 276 278 278 278 279 281 283 283 283 283 284 284 284 284 285 285 285 284 283 283 282
262 263 264 264 265 265 265 265 265 266 269 270 271 271 271 271 271 271 272 274 275 277 278 279 279 280 280 282 283 283 284 284 284 284 284 285 286 286 286 286 285 285 284
263 264 265 265 265 267 267 267 267 269 270 271 272 272 272 272 272 273 273 275 277 278 279 280 281 281 282 283 284 283 284 284 284 283 285 286 286 287 287 286 287 286 286
264 265 266 267 266 267 268 268 269 269 270 272 273 273 274 274 274 274 274 276 278 279 280 282 282 283 284 284 284 283 283 284 285 285 285 286 287 287 288 288 288 288 287
265 265 266 267 267 268 269 269 269 270 272 273 274 275 275 275 275 274 275 277 279 280 281 282 283 284 284 285 284 283 283 284 285 285 287 288 288 288 289 288 288 288 287
265 266 266 267 267 268 269 269 270 271 272 273 274 275 276 277 276 276 276 278 280 281 282 282 283 284 284 284 283 284 285 285 286 287 288 289 289 288 288 288 288 288 289
266 268 268 268 268 269 269 270 271 272 273 273 274 276 278 278 278 277 278 279 280 281 282 283 283 283 284 284 284 284 285 286 287 288 288 289 290 289 289 289 289 289 290
Height
5795 5797 5799 5801 5802 5804 5806 5807 5809 5811 5812 5814 5816 5817 5819 5820 5821 5822 5823 5824 5824 5825 5825 5825 5826 5826 5825 5825 5825 5825 5825 5825 5824 5824 5823 5822 5822 5821 5820 5819 5818 5817 5816
5787 5789 5791 5793 5794 5796 5798 5800 5801 5803 5805 5807 5809 5810 5812 5813 5814 5816 5816 5817 5818 5819 5819 5819 5820 5820 5819 5820 5819 5819 5819 5819 5818 5818 5817 5816 5816 5815 5814 5813 5812 5811 5810
5779 5781 5782 5784 5786 5788 5789 5791 5793 5795 5797 5799 5801 5803 5804 5806 5807 5808 5809 5810 5811 5812 5812 5813 5813 5813 5813 5813 5813 5813 5813 5812 5812 5811 5811 5810 5809 5808 5807 5806 5805 5804 5803
5770 5772 5773 5775 5777 5778 5780 5782 5784 5786 5788 5790 5793 5795 5796 5798 5799 5801 5802 5803 5804 5805 5805 5806 5806 5806 5806 5806 5806 5806 5805 5805 5805 5804 5803 5803 5802 5801 5800 5799 5798 5797 5796
5761 5762 5764 5765 5767 5769 5771 5773 5775 5777 5779 5781 5784 5786 5788 5789 5791 5792 5794 5795 5796 5797 5797 5798 5798 5798 5799 5798 5798 5798 5798 5797 5797 5796 5796 5795 5794 5793 5792 5791 5790 5789 5788
5751 5752 5754 5755 5757 5759 5761 5763 5765 5767 5770 5772 5774 5776 5779 5780 5782 5783 5785 5786 5787 5788 5789 5790 5790 5790 5791 5790 5790 5790 5790 5789 5789 5788 5787 5786 5785 5784 5783 5782 5781 5780 5779
5741 5742 5744 5745 5746 5748 5750 5752 5755 5757 5760 5762 5765 5767 5769 5771 5773 5774 5776 5777 5778 5779 5780 5781 5781 5782 5782 5782 5782 5781 5781 5780 5780 5779 5778 5777 5776 5775 5774 5773 5772 5771 5770
5731 5732 5733 5734 5736 5738 5740 5742 5745 5747 5750 5752 5755 5757 5759 5762 5763 5765 5767 5768 5769 5770 5771 5772 5772 5773 5773 5773 5773 5772 5771 5771 5770 5769 5768 5767 5766 5765 5764 5763 5762 5761 5760
5720 5721 5723 5724 5726 5727 5729 5732 5734 5737 5739 5741 5744 5747 5749 5752 5754 5756 5757 5758 5759 5760 5761 5762 5762 5763 5763 5763 5763 5762 5761 5760 5760 5759 5758 5757 5756 5755 5754 5752 5751 5750 5749
5711 5711 5713 5714 5716 5717 5719 5721 5723 5725 5728 5730 5733 5735 5739 5741 5744 5746 5748 5748 5749 5750 5750 5751 5751 5752 5752 5752 5752 5751 5750 5750 5749 5748 5747 5746 5744 5743 5742 5741 5739 5738 5737
5701 5702 5703 5704 5706 5708 5709 5711 5712 5714 5716 5719 5721 5724 5727 5729 5732 5734 5737 5738 5738 5739 5740 5740 5740 5740 5740 5740 5740 5740 5739 5738 5737 5736 5735 5734 5732 5731 5729 5728 5727 5726 5724
5691 5692 5693 5694 5696 5697 5699 5700 5702 5703 5705 5707 5710 5712 5715 5717 5720 5722 5724 5726 5727 5728 5728 5728 5728 5728 5728 5728 5728 5727 5726 5725 5724 5723 5722 5720 5719 5717 5716 5714 5713 5712 5710
5682 5682 5683 5684 5685 5687 5688 5689 5691 5693 5694 5696 5698 5700 5703 5705 5707 5710 5711 5713 5715 5716 5717 5717 5716 5716 5716 5715 5715 5714 5713 5712 5711 5709 5708 5706 5705 5703 5701 5700 5698 5697 5695
5672 5673 5673 5674 5675 5676 5677 5678 5680 5682 5683 5685 5687 5689 5691 5693 5695 5697 5699 5700 5702 5704 5705 5705 5704 5703 5703 5702 5701 5700 5699 5698 5696 5695 5693 5692 5690 5688 5686 5685 5683 5681 5680
5663 5663 5664 5665 5665 5666 5667 5668 5669 5671 5673 5675 5676 5678 5680 5682 5683 5685 5686 5687 5689 5690 5692 5692 5692 5691 5689 5688 5687 5686 5684 5683 5681 5680 5678 5676 5674 5672 5670 5668 5666 5665 5663
5653 5654 5654 5655 5656 5657 5657 5658 5659 5661 5662 5664 5666 5667 5669 5670 5672 5673 5674 5675 5676 5676 5678 5680 5679 5677 5676 5674 5672 5670 5669 5667 5666 5664 5662 5660 5658 5656 5653 5651 5649 5647 5646
5644 5645 5646 5646 5647 5648 5648 5649 5650 5651 5653 5654 5655 5657 5658 5659 5661 5662 5662 5663 5663 5663 5664 5666 5665 5664 5662 5660 5658 5655 5653 5651 5649 5647 5645 5643 5641 5638 5636 5633 5632 5630 5629
5635 5636 5636 5637 5638 5639 5639 5640 5641 5642 5644 5645 5645 5646 5647 5648 5649 5650 5650 5650 5650 5650 5650 5651 5651 5650 5648 5646 5643 5640 5637 5635 5633 5631 5628 5626 5624 5621 5618 5616 5614 5612 5611
5626 5627 5627 5628 5629 5630 5630 5631 5632 5633 5634 5635 5635 5636 5636 5636 5637 5637 5638 5638 5637 5637 5636 5636 5636 5635 5634 5631 5627 5625 5622 5619 5617 5614 5611 5609 5607 5604 5601 5599 5597 5595 5594
5617 5618 5619 5619 5620 5621 5621 5622 5623 5623 5624 5624 5624 5624 5625 5625 5625 5625 5626 5625 5625 5624 5623 5622 5621 5621 5619 5616 5613 5610 5607 5605 5602 5599 5596 5593 5591 5588 5586 5584 5582 5580 5578
5608 5609 5609 5610 5611 5612 5613 5613 5614 5614 5614 5614 5614 5614 5614 5613 5613 5613 5613 5613 5612 5611 5610 5608 5607 5606 5604 5602 5599 5595 5592 5591 5589 5585 5582 5580 5577 5575 5572 5569 5567 5565 5563
5599 5600 5600 5601 5602 5602 5603 5604 5604 5604 5604 5604 5604 5604 5603 5603 5602 5602 5601 5600 5599 5598 5597 5595 5593 5591 5589 5587 5584 5581 5578 5577 5576 5574 5569 5568 5564 5562 5559 5556 5553 5551 5548
5590 5590 5591 5592 5592 5593 5593 5594 5594 5594 5594 5594 5594 5593 5593 5592 5591 5590 5589 5588 5587 5585 5583 5582 5579 5577 5575 5573 5570 5568 5565 5563 5562 5559 5557 5556 5552 5550 5547 5544 5540 5537 5534
5581 5582 5582 5582 5583 5583 5583 5584 5584 5584 5584 5584 5583 5583 5582 5581 5580 5579 5578 5577 5575 5573 5571 5568 5566 5564 5562 5559 5557 5555 5553 5551 5550 5547 5543 5542 5540 5537 5535 5531 5527 5524 5520
5573 5573 5573 5573 5573 5573 5573 5574 5574 5574 5574 5574 5573 5572 5571 5570 5569 5567 5566 5565 5564 5561 5558 5556 5554 5552 5549 5547 5544 5542 5540 5539 5537 5535 5531 5529 5527 5524 5523 5519 5515 5511 5508
5563 5564 5564 5563 5563 5564 5563 5563 5563 5564 5564 5563 5563 5561 5560 5559 5557 5555 5554 5553 5552 5551 5548 5546 5544 5541 5538 5536 5533 5530 5528 5526 5524 5523 5519 5516 5514 5511 5510 5508 5504 5500 5496